| time (UTC) | temp F | wind direction | speed MPH | gust MPH | rain 1hr in | rain 24hr in | rain mn in | humidity % | barometer mb |
| 20260905123459 | 68 | 349 | 2.0 | 5.0 | 0.00 | 0.00 | 0.00 | 87 | 1006.9 |
| 20260905123007 | 68 | 355 | 2.0 | 5.0 | 0.00 | 0.00 | 0.00 | 88 | 1006.9 |
| 20260905122516 | 67 | 349 | 2.0 | 4.0 | 0.00 | 0.00 | 0.00 | 88 | 1006.8 |
| 20260905122005 | 66 | 351 | 2.0 | 3.0 | 0.00 | 0.00 | 0.00 | 89 | 1006.8 |
| 20260905121507 | 66 | 344 | 2.0 | 4.0 | 0.00 | 0.00 | 0.00 | 89 | 1006.8 |
| 20260905121001 | 65 | 342 | 2.0 | 4.0 | 0.00 | 0.00 | 0.00 | 90 | 1006.7 |
| 20260905120506 | 65 | 337 | 1.0 | 3.0 | 0.00 | 0.00 | 0.00 | 90 | 1006.7 |
| 20260905120012 | 64 | 273 | 2.0 | 6.0 | 0.00 | 0.00 | 0.00 | 90 | 1006.7 |
| 20260905115518 | 63 | 346 | 1.0 | 6.0 | 0.00 | 0.00 | 0.00 | 90 | 1006.7 |
| 20260905114503 | 63 | 311 | 1.0 | 3.0 | 0.00 | 0.00 | 0.00 | 90 | 1006.8 |
| 20260905114002 | 62 | 270 | 0.0 | 5.0 | 0.00 | 0.00 | 0.00 | 90 | 1006.8 |
| 20260905113508 | 62 | 270 | 0.0 | 5.0 | 0.00 | 0.00 | 0.00 | 90 | 1006.8 |
| 20260905112502 | 62 | 69 | 0.0 | 0.0 | 0.00 | 0.00 | 0.00 | 90 | 1006.7 |
| 20260905112013 | 62 | 69 | 0.0 | 2.0 | 0.00 | 0.00 | 0.00 | 89 | 1006.6 |
| 20260905111514 | 62 | 290 | 0.0 | 2.0 | 0.00 | 0.00 | 0.00 | 90 | 1006.5 |
| 20260905111001 | 62 | 5 | 0.0 | 2.0 | 0.00 | 0.00 | 0.00 | 90 | 1006.5 |
| 20260905110459 | 61 | 5 | 0.0 | 2.0 | 0.00 | 0.00 | 0.00 | 89 | 1006.4 |
| 20260905110032 | 61 | 66 | 0.0 | 0.0 | 0.00 | 0.00 | 0.00 | 89 | 1006.4 |
| 20260905105534 | 61 | 89 | 0.0 | 4.0 | 0.00 | 0.00 | 0.00 | 89 | 1006.3 |
| 20260905105009 | 61 | 331 | 0.0 | 4.0 | 0.00 | 0.00 | 0.00 | 89 | 1006.3 |
| 20260905104504 | 61 | 311 | 0.0 | 1.0 | 0.00 | 0.00 | 0.00 | 89 | 1006.3 |
| 20260905103532 | 61 | 14 | 0.0 | 0.0 | 0.00 | 0.00 | 0.00 | 89 | 1006.1 |
| 20260905103009 | 61 | 15 | 0.0 | 1.0 | 0.00 | 0.00 | 0.00 | 89 | 1006.1 |
| 20260905102500 | 61 | 15 | 0.0 | 1.0 | 0.00 | 0.00 | 0.00 | 89 | 1006.1 |
| 20260905102005 | 61 | 286 | 0.0 | 1.0 | 0.00 | 0.00 | 0.00 | 89 | 1006.2 |
| 20260905101514 | 61 | 286 | 0.0 | 1.0 | 0.00 | 0.00 | 0.00 | 89 | 1006.1 |
| 20260905101004 | 61 | 59 | 0.0 | 0.0 | 0.00 | 0.00 | 0.00 | 89 | 1006.0 |
| 20260905100502 | 61 | 59 | 0.0 | 2.0 | 0.00 | 0.00 | 0.00 | 89 | 1006.0 |
| 20260905095502 | 61 | 265 | 0.0 | 1.0 | 0.00 | 0.00 | 0.00 | 89 | 1006.0 |
| 20260905095004 | 61 | 265 | 0.0 | 4.0 | 0.00 | 0.00 | 0.00 | 89 | 1006.0 |
| 20260905094506 | 61 | 265 | 0.0 | 4.0 | 0.00 | 0.00 | 0.00 | 89 | 1006.0 |
| 20260905094028 | 61 | 272 | 0.0 | 0.0 | 0.00 | 0.00 | 0.00 | 89 | 1006.0 |
| 20260905093506 | 61 | 272 | 0.0 | 0.0 | 0.00 | 0.00 | 0.00 | 89 | 1005.9 |
| 20260905093003 | 61 | 272 | 0.0 | 0.0 | 0.00 | 0.00 | 0.00 | 89 | 1006.0 |
| 20260905092510 | 61 | 229 | 0.0 | 1.0 | 0.00 | 0.00 | 0.00 | 89 | 1006.0 |
| 20260905091505 | 61 | 344 | 0.0 | 1.0 | 0.00 | 0.00 | 0.00 | 89 | 1006.0 |
| 20260905090502 | 61 | 115 | 0.0 | 0.0 | 0.00 | 0.00 | 0.00 | 89 | 1005.9 |
| 20260905085541 | 61 | 115 | 0.0 | 0.0 | 0.00 | 0.01 | 0.00 | 89 | 1006.0 |
| 20260905084504 | 61 | 112 | 0.0 | 0.0 | 0.00 | 0.01 | 0.00 | 89 | 1006.0 |
| 20260905084003 | 62 | 112 | 0.0 | 0.0 | 0.00 | 0.01 | 0.00 | 89 | 1006.0 |
| 20260905083004 | 62 | 107 | 0.0 | 0.0 | 0.00 | 0.01 | 0.00 | 89 | 1006.0 |
| 20260905082509 | 62 | 107 | 0.0 | 0.0 | 0.00 | 0.01 | 0.00 | 89 | 1005.9 |
| 20260905081959 | 62 | 69 | 0.0 | 0.0 | 0.00 | 0.01 | 0.00 | 89 | 1005.9 |
| 20260905081521 | 62 | 69 | 0.0 | 0.0 | 0.00 | 0.01 | 0.00 | 89 | 1005.9 |
| 20260905080503 | 62 | 69 | 0.0 | 0.0 | 0.00 | 0.01 | 0.00 | 89 | 1005.9 |
| 20260905080031 | 62 | 69 | 0.0 | 0.0 | 0.00 | 0.01 | 0.00 | 88 | 1005.9 |
| 20260905075514 | 62 | 69 | 0.0 | 0.0 | 0.00 | 0.01 | 0.00 | 88 | 1005.8 |
| 20260905074959 | 62 | 69 | 0.0 | 1.0 | 0.00 | 0.01 | 0.00 | 88 | 1005.9 |
| 20260905074502 | 62 | 69 | 0.0 | 1.0 | 0.00 | 0.01 | 0.00 | 89 | 1005.8 |
| 20260905074004 | 62 | 170 | 0.0 | 1.0 | 0.00 | 0.01 | 0.00 | 89 | 1005.8 |
| 20260905073501 | 62 | 170 | 0.0 | 1.0 | 0.00 | 0.01 | 0.00 | 89 | 1005.9 |
| 20260905073023 | 62 | 170 | 0.0 | 2.0 | 0.00 | 0.01 | 0.00 | 89 | 1005.9 |
| 20260905072458 | 62 | 328 | 0.0 | 2.0 | 0.00 | 0.01 | 0.00 | 89 | 1006.0 |
| 20260905072024 | 62 | 281 | 0.0 | 2.0 | 0.00 | 0.01 | 0.00 | 88 | 1006.0 |
| 20260905071501 | 62 | 46 | 0.0 | 1.0 | 0.00 | 0.01 | 0.00 | 88 | 1006.0 |
| 20260905071004 | 62 | 46 | 0.0 | 1.0 | 0.00 | 0.01 | 0.00 | 88 | 1006.0 |
| 20260905070513 | 62 | 45 | 0.0 | 1.0 | 0.00 | 0.01 | 0.00 | 88 | 1006.1 |
| 20260905070011 | 62 | 74 | 0.0 | 1.0 | 0.00 | 0.01 | 0.00 | 88 | 1006.2 |
| 20260905065510 | 62 | 140 | 0.0 | 2.0 | 0.00 | 0.01 | 0.00 | 88 | 1006.3 |
| 20260905065000 | 62 | 103 | 0.0 | 2.0 | 0.00 | 0.01 | 0.00 | 88 | 1006.4 |
| 20260905063508 | 62 | 169 | 0.0 | 0.0 | 0.00 | 0.01 | 0.00 | 88 | 1006.5 |
| 20260905063025 | 62 | 169 | 0.0 | 0.0 | 0.00 | 0.01 | 0.00 | 88 | 1006.4 |
| 20260905062509 | 62 | 169 | 0.0 | 0.0 | 0.00 | 0.01 | 0.00 | 88 | 1006.4 |
| 20260905062033 | 62 | 169 | 0.0 | 0.0 | 0.00 | 0.01 | 0.00 | 87 | 1006.4 |
| 20260905061458 | 62 | 168 | 0.0 | 0.0 | 0.00 | 0.01 | 0.00 | 88 | 1006.5 |
| 20260905061003 | 62 | 168 | 0.0 | 0.0 | 0.00 | 0.01 | 0.00 | 87 | 1006.5 |
| 20260905060520 | 63 | 168 | 0.0 | 0.0 | 0.00 | 0.01 | 0.00 | 87 | 1006.5 |
| 20260905060005 | 63 | 168 | 0.0 | 0.0 | 0.00 | 0.01 | 0.00 | 87 | 1006.6 |
| 20260905055503 | 63 | 168 | 0.0 | 0.0 | 0.00 | 0.01 | 0.00 | 87 | 1006.6 |
| 20260905055000 | 63 | 168 | 0.0 | 0.0 | 0.00 | 0.01 | 0.00 | 87 | 1006.6 |
| 20260905054006 | 63 | 168 | 0.0 | 0.0 | 0.00 | 0.01 | 0.00 | 87 | 1006.4 |
| 20260905053458 | 63 | 168 | 0.0 | 0.0 | 0.00 | 0.01 | 0.00 | 87 | 1006.5 |
| 20260905053008 | 63 | 168 | 0.0 | 0.0 | 0.00 | 0.01 | 0.00 | 87 | 1006.5 |
| 20260905052503 | 63 | 168 | 0.0 | 0.0 | 0.00 | 0.01 | 0.00 | 87 | 1006.4 |
| 20260905052009 | 63 | 168 | 0.0 | 0.0 | 0.00 | 0.01 | 0.00 | 87 | 1006.5 |
| 20260905051459 | 64 | 168 | 0.0 | 0.0 | 0.00 | 0.01 | 0.00 | 87 | 1006.5 |
| 20260905051005 | 64 | 168 | 0.0 | 0.0 | 0.00 | 0.01 | 0.00 | 87 | 1006.4 |
| 20260905050515 | 64 | 168 | 0.0 | 0.0 | 0.00 | 0.01 | 0.00 | 87 | 1006.5 |
| 20260905050001 | 64 | 168 | 0.0 | 0.0 | 0.00 | 0.01 | 0.00 | 87 | 1006.7 |
| 20260905045511 | 64 | 168 | 0.0 | 0.0 | 0.00 | 0.01 | 0.00 | 87 | 1006.6 |
| 20260905045006 | 64 | 168 | 0.0 | 0.0 | 0.00 | 0.01 | 0.00 | 87 | 1006.6 |
| 20260905044003 | 64 | 168 | 0.0 | 0.0 | 0.00 | 0.01 | 0.00 | 87 | 1006.5 |
| 20260905043506 | 64 | 168 | 0.0 | 0.0 | 0.00 | 0.01 | 0.00 | 87 | 1006.4 |
| 20260905042959 | 65 | 168 | 0.0 | 0.0 | 0.00 | 0.01 | 0.00 | 87 | 1006.6 |
| 20260905042537 | 65 | 168 | 0.0 | 0.0 | 0.00 | 0.01 | 0.00 | 87 | 1006.4 |
| 20260905042000 | 65 | 168 | 0.0 | 0.0 | 0.00 | 0.01 | 0.00 | 87 | 1006.5 |
| 20260905041504 | 65 | 168 | 0.0 | 0.0 | 0.00 | 0.01 | 0.00 | 87 | 1006.5 |
| 20260905041035 | 65 | 168 | 0.0 | 0.0 | 0.00 | 0.01 | 0.00 | 87 | 1006.4 |
| 20260905040501 | 65 | 168 | 0.0 | 0.0 | 0.00 | 0.01 | 0.00 | 87 | 1006.4 |
| 20260905040033 | 65 | 168 | 0.0 | 0.0 | 0.00 | 0.01 | 0.00 | 87 | 1006.5 |
| 20260905035514 | 65 | 168 | 0.0 | 0.0 | 0.00 | 0.01 | 0.01 | 87 | 1006.5 |
| 20260905035004 | 65 | 168 | 0.0 | 0.0 | 0.00 | 0.01 | 0.01 | 87 | 1006.4 |
| 20260905034502 | 65 | 168 | 0.0 | 0.0 | 0.00 | 0.01 | 0.01 | 86 | 1006.6 |
| 20260905034005 | 65 | 168 | 0.0 | 0.0 | 0.00 | 0.01 | 0.01 | 86 | 1006.6 |
| 20260905033504 | 66 | 168 | 0.0 | 0.0 | 0.00 | 0.01 | 0.01 | 86 | 1006.5 |
| 20260905033005 | 66 | 168 | 0.0 | 0.0 | 0.00 | 0.01 | 0.01 | 86 | 1006.5 |
| 20260905032510 | 66 | 168 | 0.0 | 0.0 | 0.00 | 0.01 | 0.01 | 86 | 1006.5 |
| 20260905032027 | 66 | 168 | 0.0 | 0.0 | 0.00 | 0.01 | 0.01 | 86 | 1006.6 |
| 20260905031506 | 66 | 168 | 0.0 | 0.0 | 0.00 | 0.01 | 0.01 | 86 | 1006.6 |
| 20260905031005 | 66 | 168 | 0.0 | 0.0 | 0.00 | 0.01 | 0.01 | 86 | 1006.6 |
| 20260905030511 | 66 | 168 | 0.0 | 0.0 | 0.00 | 0.01 | 0.01 | 86 | 1006.6 |
| 20260905030006 | 66 | 168 | 0.0 | 0.0 | 0.00 | 0.01 | 0.01 | 86 | 1006.5 |
| 20260905025500 | 66 | 168 | 0.0 | 0.0 | 0.00 | 0.01 | 0.01 | 86 | 1006.5 |
| 20260905025007 | 67 | 168 | 0.0 | 0.0 | 0.00 | 0.01 | 0.01 | 86 | 1006.5 |
| 20260905024006 | 67 | 168 | 0.0 | 0.0 | 0.00 | 0.01 | 0.01 | 86 | 1006.5 |
| 20260905022000 | 67 | 168 | 0.0 | 0.0 | 0.00 | 0.01 | 0.01 | 86 | 1006.6 |
| 20260905021541 | 67 | 168 | 0.0 | 0.0 | 0.00 | 0.01 | 0.01 | 86 | 1006.6 |
| 20260905021007 | 68 | 168 | 0.0 | 0.0 | 0.00 | 0.01 | 0.01 | 86 | 1006.7 |
| 20260905020501 | 68 | 168 | 0.0 | 0.0 | 0.00 | 0.01 | 0.01 | 86 | 1006.7 |
| 20260905020007 | 68 | 168 | 0.0 | 0.0 | 0.00 | 0.01 | 0.01 | 86 | 1006.8 |
| 20260905015503 | 68 | 168 | 0.0 | 0.0 | 0.00 | 0.01 | 0.01 | 86 | 1006.9 |
| 20260905015007 | 68 | 168 | 0.0 | 0.0 | 0.00 | 0.01 | 0.01 | 86 | 1007.0 |
| 20260905014500 | 68 | 168 | 0.0 | 0.0 | 0.00 | 0.01 | 0.01 | 86 | 1006.9 |
| 20260905014024 | 68 | 168 | 0.0 | 0.0 | 0.00 | 0.01 | 0.01 | 85 | 1007.0 |
| 20260905013514 | 68 | 168 | 0.0 | 0.0 | 0.00 | 0.01 | 0.01 | 85 | 1007.0 |
| 20260905013023 | 68 | 168 | 0.0 | 0.0 | 0.00 | 0.01 | 0.01 | 85 | 1007.0 |
| 20260905012509 | 68 | 93 | 0.0 | 0.0 | 0.00 | 0.01 | 0.01 | 85 | 1007.0 |
| 20260905012022 | 68 | 93 | 0.0 | 0.0 | 0.00 | 0.01 | 0.01 | 85 | 1007.1 |
| 20260905011528 | 68 | 93 | 0.0 | 0.0 | 0.00 | 0.01 | 0.01 | 84 | 1007.2 |
| 20260905011006 | 68 | 93 | 0.0 | 0.0 | 0.00 | 0.01 | 0.01 | 84 | 1007.1 |
| 20260905010509 | 68 | 93 | 0.0 | 0.0 | 0.00 | 0.01 | 0.01 | 84 | 1007.0 |
| 20260905010004 | 69 | 93 | 0.0 | 0.0 | 0.00 | 0.01 | 0.01 | 84 | 1007.0 |
| 20260905005507 | 69 | 93 | 0.0 | 0.0 | 0.00 | 0.01 | 0.01 | 83 | 1007.0 |
| 20260905005031 | 69 | 93 | 0.0 | 0.0 | 0.00 | 0.01 | 0.01 | 83 | 1007.0 |
| 20260905004009 | 69 | 93 | 0.0 | 0.0 | 0.00 | 0.01 | 0.01 | 83 | 1007.0 |
| 20260905003507 | 69 | 93 | 0.0 | 0.0 | 0.00 | 0.01 | 0.01 | 82 | 1006.9 |
| 20260905003002 | 69 | 93 | 0.0 | 0.0 | 0.00 | 0.01 | 0.01 | 82 | 1006.9 |
| 20260905002508 | 70 | 93 | 0.0 | 0.0 | 0.00 | 0.01 | 0.01 | 82 | 1006.9 |
| 20260905001505 | 70 | 93 | 0.0 | 0.0 | 0.00 | 0.01 | 0.01 | 81 | 1006.8 |
| 20260905001003 | 70 | 93 | 0.0 | 0.0 | 0.00 | 0.01 | 0.01 | 81 | 1006.8 |
| 20260904235520 | 71 | 93 | 0.0 | 0.0 | 0.00 | 0.01 | 0.01 | 80 | 1006.7 |
| 20260904235031 | 71 | 93 | 0.0 | 0.0 | 0.00 | 0.01 | 0.01 | 80 | 1006.7 |
| 20260904234538 | 71 | 93 | 0.0 | 0.0 | 0.00 | 0.01 | 0.01 | 80 | 1006.6 |
| 20260904234027 | 71 | 93 | 0.0 | 0.0 | 0.00 | 0.01 | 0.01 | 79 | 1006.5 |
| 20260904233459 | 72 | 93 | 0.0 | 0.0 | 0.00 | 0.01 | 0.01 | 79 | 1006.5 |
| 20260904232959 | 72 | 93 | 0.0 | 0.0 | 0.00 | 0.01 | 0.01 | 79 | 1006.6 |
| 20260904232518 | 72 | 93 | 0.0 | 0.0 | 0.00 | 0.01 | 0.01 | 78 | 1006.5 |
| 20260904232005 | 72 | 93 | 0.0 | 0.0 | 0.00 | 0.01 | 0.01 | 78 | 1006.5 |
| 20260904231502 | 72 | 93 | 0.0 | 2.0 | 0.00 | 0.01 | 0.01 | 78 | 1006.4 |
| 20260904231045 | 72 | 93 | 1.0 | 5.0 | 0.00 | 0.01 | 0.01 | 78 | 1006.4 |
| 20260904230459 | 72 | 93 | 1.0 | 5.0 | 0.00 | 0.01 | 0.01 | 78 | 1006.3 |
| 20260904230004 | 73 | 65 | 1.0 | 2.0 | 0.00 | 0.01 | 0.01 | 78 | 1006.4 |
| 20260904225508 | 73 | 64 | 0.0 | 2.0 | 0.00 | 0.01 | 0.01 | 77 | 1006.5 |
| 20260904224516 | 73 | 64 | 0.0 | 2.0 | 0.00 | 0.01 | 0.01 | 76 | 1006.4 |
| 20260904224003 | 73 | 63 | 0.0 | 2.0 | 0.00 | 0.01 | 0.01 | 76 | 1006.3 |
| 20260904223514 | 73 | 63 | 0.0 | 1.0 | 0.00 | 0.01 | 0.01 | 76 | 1006.4 |
| 20260904223009 | 74 | 63 | 0.0 | 2.0 | 0.00 | 0.01 | 0.01 | 75 | 1006.3 |
| 20260904222521 | 74 | 63 | 0.0 | 2.0 | 0.00 | 0.01 | 0.01 | 74 | 1006.3 |
| 20260904221501 | 74 | 327 | 1.0 | 2.0 | 0.00 | 0.01 | 0.01 | 73 | 1006.2 |
| 20260904221006 | 74 | 327 | 1.0 | 2.0 | 0.00 | 0.01 | 0.01 | 72 | 1006.2 |
| 20260904220506 | 75 | 327 | 1.0 | 4.0 | 0.00 | 0.01 | 0.01 | 73 | 1006.2 |
| 20260904220011 | 75 | 40 | 1.0 | 4.0 | 0.00 | 0.01 | 0.01 | 72 | 1006.2 |
| 20260904215506 | 75 | 40 | 1.0 | 2.0 | 0.00 | 0.01 | 0.01 | 72 | 1006.2 |
| 20260904215006 | 75 | 40 | 1.0 | 4.0 | 0.00 | 0.01 | 0.01 | 71 | 1006.1 |
| 20260904214512 | 76 | 40 | 1.0 | 4.0 | 0.00 | 0.01 | 0.01 | 71 | 1006.0 |
| 20260904214001 | 77 | 128 | 1.0 | 2.0 | 0.00 | 0.01 | 0.01 | 71 | 1006.0 |
| 20260904213459 | 77 | 129 | 1.0 | 2.0 | 0.00 | 0.01 | 0.01 | 70 | 1005.9 |
| 20260904213006 | 77 | 129 | 1.0 | 2.0 | 0.00 | 0.01 | 0.01 | 70 | 1006.0 |
| 20260904211030 | 78 | 135 | 0.0 | 2.0 | 0.00 | 0.01 | 0.01 | 66 | 1006.1 |
| 20260904210504 | 79 | 135 | 1.0 | 2.0 | 0.00 | 0.01 | 0.01 | 66 | 1006.2 |
| 20260904210004 | 80 | 135 | 1.0 | 2.0 | 0.00 | 0.01 | 0.01 | 64 | 1006.1 |
| 20260904205508 | 80 | 136 | 1.0 | 4.0 | 0.00 | 0.01 | 0.01 | 63 | 1006.1 |
| 20260904205005 | 81 | 136 | 1.0 | 4.0 | 0.00 | 0.01 | 0.01 | 64 | 1006.1 |
| 20260904204504 | 81 | 136 | 1.0 | 4.0 | 0.00 | 0.01 | 0.01 | 63 | 1006.0 |
| 20260904203501 | 81 | 106 | 1.0 | 4.0 | 0.00 | 0.01 | 0.01 | 63 | 1006.1 |
| 20260904203006 | 81 | 82 | 0.0 | 2.0 | 0.00 | 0.01 | 0.01 | 63 | 1006.0 |
| 20260904202521 | 81 | 305 | 0.0 | 2.0 | 0.00 | 0.01 | 0.01 | 64 | 1006.0 |
| 20260904202029 | 81 | 211 | 1.0 | 2.0 | 0.00 | 0.01 | 0.01 | 65 | 1006.2 |
| 20260904201504 | 81 | 211 | 1.0 | 3.0 | 0.00 | 0.01 | 0.01 | 64 | 1006.2 |
| 20260904201026 | 81 | 210 | 1.0 | 4.0 | 0.00 | 0.01 | 0.01 | 62 | 1006.0 |
| 20260904200005 | 80 | 69 | 1.0 | 4.0 | 0.00 | 0.01 | 0.01 | 65 | 1006.0 |
| 20260904195504 | 80 | 78 | 1.0 | 4.0 | 0.00 | 0.06 | 0.01 | 66 | 1005.9 |
| 20260904195011 | 80 | 344 | 1.0 | 2.0 | 0.00 | 0.06 | 0.01 | 65 | 1006.0 |
| 20260904194553 | 80 | 344 | 1.0 | 2.0 | 0.00 | 0.06 | 0.01 | 64 | 1006.1 |
| 20260904194002 | 80 | 202 | 1.0 | 2.0 | 0.00 | 0.06 | 0.01 | 66 | 1006.1 |
| 20260904193503 | 80 | 202 | 1.0 | 2.0 | 0.00 | 0.06 | 0.01 | 65 | 1006.1 |
| 20260904193002 | 80 | 246 | 1.0 | 2.0 | 0.00 | 0.06 | 0.01 | 64 | 1006.2 |
| 20260904192504 | 81 | 238 | 1.0 | 4.0 | 0.00 | 0.06 | 0.01 | 64 | 1006.2 |
| 20260904192009 | 81 | 256 | 1.0 | 3.0 | 0.00 | 0.06 | 0.01 | 64 | 1006.3 |
| 20260904191003 | 80 | 179 | 1.0 | 4.0 | 0.00 | 0.06 | 0.01 | 65 | 1006.4 |
| 20260904190503 | 80 | 78 | 1.0 | 4.0 | 0.00 | 0.06 | 0.01 | 66 | 1006.3 |
| 20260904190014 | 80 | 243 | 1.0 | 2.0 | 0.00 | 0.06 | 0.01 | 67 | 1006.3 |
| 20260904185527 | 80 | 215 | 1.0 | 2.0 | 0.00 | 0.06 | 0.01 | 66 | 1006.3 |
| 20260904185006 | 80 | 164 | 1.0 | 2.0 | 0.00 | 0.06 | 0.01 | 68 | 1006.4 |
| 20260904184503 | 79 | 131 | 1.0 | 4.0 | 0.00 | 0.06 | 0.01 | 68 | 1006.4 |
| 20260904183516 | 79 | 355 | 2.0 | 5.0 | 0.00 | 0.06 | 0.01 | 68 | 1006.4 |
| 20260904183005 | 79 | 323 | 2.0 | 5.0 | 0.00 | 0.06 | 0.01 | 68 | 1006.4 |
| 20260904182509 | 79 | 337 | 2.0 | 5.0 | 0.00 | 0.06 | 0.01 | 69 | 1006.5 |
| 20260904182021 | 79 | 10 | 2.0 | 4.0 | 0.00 | 0.06 | 0.01 | 70 | 1006.5 |
| 20260904181459 | 78 | 263 | 1.0 | 3.0 | 0.00 | 0.06 | 0.01 | 71 | 1006.4 |
| 20260904181009 | 78 | 336 | 1.0 | 4.0 | 0.00 | 0.06 | 0.01 | 72 | 1006.5 |
| 20260904180503 | 77 | 306 | 1.0 | 4.0 | 0.00 | 0.06 | 0.01 | 73 | 1006.6 |
| 20260904175510 | 77 | 207 | 1.0 | 5.0 | 0.00 | 0.06 | 0.01 | 73 | 1006.7 |
| 20260904175010 | 77 | 346 | 1.0 | 4.0 | 0.00 | 0.06 | 0.01 | 73 | 1006.6 |
| 20260904174001 | 77 | 62 | 1.0 | 3.0 | 0.00 | 0.06 | 0.01 | 72 | 1006.8 |
| 20260904173502 | 77 | 324 | 1.0 | 4.0 | 0.00 | 0.06 | 0.01 | 74 | 1006.9 |
| 20260904173029 | 77 | 247 | 1.0 | 4.0 | 0.00 | 0.06 | 0.01 | 73 | 1006.9 |
| 20260904172521 | 76 | 346 | 1.0 | 4.0 | 0.00 | 0.06 | 0.01 | 74 | 1006.8 |
| 20260904171515 | 76 | 284 | 1.0 | 4.0 | 0.00 | 0.06 | 0.01 | 74 | 1006.7 |
| 20260904171006 | 76 | 228 | 1.0 | 4.0 | 0.00 | 0.06 | 0.01 | 74 | 1006.7 |
| 20260904170006 | 76 | 15 | 1.0 | 4.0 | 0.00 | 0.06 | 0.01 | 74 | 1006.8 |
| 20260904165515 | 76 | 342 | 1.0 | 4.0 | 0.00 | 0.06 | 0.01 | 74 | 1006.9 |
| 20260904164502 | 76 | 134 | 1.0 | 5.0 | 0.00 | 0.06 | 0.01 | 76 | 1007.1 |
| 20260904164004 | 76 | 248 | 1.0 | 4.0 | 0.00 | 0.06 | 0.01 | 75 | 1007.0 |
| 20260904163514 | 76 | 360 | 1.0 | 3.0 | 0.00 | 0.06 | 0.01 | 75 | 1007.2 |
| 20260904163003 | 76 | 183 | 1.0 | 5.0 | 0.00 | 0.06 | 0.01 | 75 | 1007.1 |
| 20260904162005 | 76 | 127 | 2.0 | 5.0 | 0.00 | 0.06 | 0.01 | 76 | 1007.3 |
| 20260904161516 | 76 | 319 | 1.0 | 4.0 | 0.00 | 0.06 | 0.01 | 75 | 1007.3 |
| 20260904161038 | 76 | 119 | 1.0 | 4.0 | 0.00 | 0.06 | 0.01 | 76 | 1007.3 |
| 20260904160500 | 76 | 265 | 1.0 | 4.0 | 0.00 | 0.06 | 0.01 | 78 | 1007.3 |
| 20260904160005 | 76 | 163 | 1.0 | 3.0 | 0.00 | 0.06 | 0.01 | 76 | 1007.4 |
| 20260904155500 | 76 | 171 | 1.0 | 4.0 | 0.00 | 0.06 | 0.01 | 77 | 1007.4 |
| 20260904155026 | 75 | 235 | 1.0 | 4.0 | 0.00 | 0.06 | 0.01 | 77 | 1007.4 |
| 20260904154502 | 75 | 104 | 1.0 | 4.0 | 0.00 | 0.06 | 0.01 | 79 | 1007.4 |
| 20260904154010 | 75 | 109 | 1.0 | 3.0 | 0.00 | 0.06 | 0.01 | 79 | 1007.4 |
| 20260904153002 | 75 | 336 | 1.0 | 4.0 | 0.00 | 0.06 | 0.01 | 82 | 1007.3 |
| 20260904152522 | 75 | 127 | 1.0 | 4.0 | 0.00 | 0.06 | 0.01 | 85 | 1007.3 |
| 20260904152029 | 74 | 129 | 1.0 | 5.0 | 0.00 | 0.06 | 0.01 | 86 | 1007.3 |
| 20260904151502 | 74 | 306 | 1.0 | 5.0 | 0.00 | 0.06 | 0.01 | 88 | 1007.4 |
| 20260904151021 | 73 | 96 | 1.0 | 5.0 | 0.00 | 0.06 | 0.01 | 89 | 1007.5 |
| 20260904150508 | 72 | 117 | 1.0 | 4.0 | 0.00 | 0.06 | 0.01 | 90 | 1007.6 |
| 20260904150013 | 72 | 92 | 1.0 | 4.0 | 0.00 | 0.06 | 0.01 | 90 | 1007.7 |
| 20260904145523 | 71 | 93 | 1.0 | 4.0 | 0.00 | 0.06 | 0.01 | 90 | 1007.7 |
| 20260904145010 | 71 | 121 | 1.0 | 2.0 | 0.00 | 0.06 | 0.01 | 91 | 1007.7 |
| 20260904144527 | 70 | 110 | 0.0 | 2.0 | 0.00 | 0.06 | 0.01 | 91 | 1007.8 |
| 20260904144031 | 69 | 19 | 0.0 | 2.0 | 0.00 | 0.06 | 0.01 | 91 | 1007.8 |
| 20260904143027 | 69 | 74 | 0.0 | 2.0 | 0.00 | 0.06 | 0.01 | 91 | 1007.9 |
| 20260904142513 | 68 | 92 | 0.0 | 2.0 | 0.00 | 0.06 | 0.01 | 91 | 1008.0 |
| 20260904142006 | 68 | 92 | 0.0 | 2.0 | 0.00 | 0.06 | 0.01 | 91 | 1008.0 |
| 20260904141506 | 68 | 92 | 0.0 | 2.0 | 0.00 | 0.06 | 0.01 | 91 | 1008.0 |
| 20260904141009 | 68 | 92 | 0.0 | 2.0 | 0.00 | 0.06 | 0.01 | 91 | 1008.0 |
| 20260904135020 | 68 | 92 | 0.0 | 1.0 | 0.00 | 0.07 | 0.01 | 91 | 1008.0 |
| 20260904134507 | 68 | 293 | 0.0 | 1.0 | 0.00 | 0.07 | 0.01 | 91 | 1008.1 |
| 20260904134002 | 68 | 293 | 0.0 | 1.0 | 0.00 | 0.07 | 0.01 | 91 | 1008.0 |
| 20260904133520 | 68 | 305 | 0.0 | 0.0 | 0.00 | 0.07 | 0.01 | 91 | 1007.9 |
| 20260904133004 | 68 | 305 | 0.0 | 0.0 | 0.00 | 0.07 | 0.01 | 91 | 1008.0 |
| 20260904132505 | 68 | 305 | 0.0 | 0.0 | 0.00 | 0.07 | 0.01 | 91 | 1007.9 |
| 20260904132026 | 68 | 305 | 0.0 | 0.0 | 0.00 | 0.07 | 0.01 | 91 | 1007.9 |
| 20260904131523 | 68 | 305 | 0.0 | 0.0 | 0.00 | 0.07 | 0.01 | 91 | 1008.0 |
| 20260904130505 | 68 | 305 | 0.0 | 1.0 | 0.00 | 0.07 | 0.01 | 91 | 1008.0 |
| 20260904130006 | 68 | 305 | 0.0 | 1.0 | 0.00 | 0.07 | 0.01 | 91 | 1007.9 |
| 20260904125511 | 68 | 300 | 0.0 | 0.0 | 0.00 | 0.08 | 0.01 | 91 | 1008.0 |
| 20260904124504 | 68 | 300 | 0.0 | 0.0 | 0.00 | 0.08 | 0.01 | 91 | 1007.9 |
| 20260904124008 | 69 | 199 | 0.0 | 0.0 | 0.00 | 0.08 | 0.01 | 91 | 1007.9 |